UMBRA-12

导读

UMBRA-12是美国Umbra公司研发的合成孔径雷达成像卫星,于2026年1月11日发射。Umbra公司长期深耕雷达卫星技术,其卫星产品可不受天气、光照条件限制获取高分辨率地形影像。 该卫星已被纳入美国五角大楼合作项目,未来有望直接为美军提供对地观测数据,支持战场动态监测、目标识别等军事应用,将增强美国天基军事侦察感知能力。

基本信息
目录编号:
67371
目录名称:
UMBRA-12
国际标识:
2026-004J
轨道中心:
EARTH
卫星名称:
UMBRA-12
卫星全名:
UMBRA-12
卫星状态:
在轨 (已飞行237 天)
发射日期:
2026-01-11 UTC
国别 :
美国 (US)
星等 :
--
轨道信息
数据来源 国际轨道数据
星历时间: 2026-09-05T07:24:49+0800
15小时前
查看轨道信息
半长轴: 6976.395km
偏心率: 0.0004622
轨道倾角: 97.807°
近地点辐角 216.256°
升交点赤经 245.692°
平近点角 143.834°
近地点: 595.033km
远地点: 601.483km
周期: 96.651分钟
每日圈数: 14.89897
详细信息
使用方式:
暂无
2D轨道图
3D轨道图
轨道高度分析图
轨道倾角分析图
轨道综合分析图
查看轨道综合分析图
交会数据列表
事件ID 空间交会对象 最接近时刻(TCA) 交会距离 交会风险概率(CRP) 交会风险指数(CRI) 操作
CDM_260906-031202-310506-737125
STEP 2 (23105)
UMBRA-12 (67371)
2026-09-06T
03:12:25+0000
1.241 km
极远距离
1.277915E-5 中风险 0.57